Zurück zum Katalog

SL-12 R/B(2)

AktivHEO
NORAD 24815·ROCKET BODY·🇷🇺 Russia

Gestartet May 24, 1997 von Baikonur Cosmodrome

Loading…

Nächste Überflüge (nächste 24 Stunden)

TLE

AktuellSource: Space-Track

Epoche: Sep 13, 2026, 09:16 UTC

1 24815U 97026D   26256.38657459 -.00000110  00000-0  00000-0 0  9995
2 24815  19.2588 359.8479 5343700  96.9705 334.2122  1.89869082203225

Verfolge SL-12 R/B(2) in Echtzeit mit AllMySat

Download on the App Store